[[{"header":{"parameterUnit":"m.s-1","parameterCategory":1,"la1":30.2991,"la2":30.254,"lo1":-89.0895,"lo2":-89.0444,"dy":0.0017,"dx":0.0017,"nx":28,"ny":28,"refTime":"2025-08-22T21:00:00:Z","depth":0,"parameterNumber":2,"parameterNumberName":"U-component_of_WINDS"},"data":[0,0,0,0,0,0,0,0,0,0,0,0,0,0,0,0,0,0,0,0,0,0,0,0,0,0,0,0,0,0,0,0,0,0,0,0,0,0,0,0,0,0,0,0,0,0,0,0,0,0,0,0,0,0,0,0,0,0,0.8253,0.8253,0,0.8259,0.8259,0.8259,0.826,0.826,0.826,0.826,0.8267,0.8267,0.8268,0,0,0,0,0,0,0,0,0,0,0,0,0,0.8245,0.8245,0.8253,0.8253,0.8253,0.8259,0.8259,0.8259,0.826,0.826,0.826,0.826,0.8267,0.8267,0.8268,0,0,0,0,0,0,0,0,0,0,0,0,0,0.8249,0.8245,0.8253,0.8255,0.8255,0.8259,0.8259,0.8259,0.826,0.826,0.826,0.826,0.8267,0.8267,0.8268,0.8271,0,0,0.8269,0.8269,0,0,0,0,0,0,0,0,0.8249,0.825,0.8254,0.8255,0.8255,0.8259,0.8258,0.8263,0.826,0.8258,0.826,0.826,0.8264,0.8265,0.8266,0.8271,0.8271,0.8269,0.8269,0.8269,0.8269,0,0,0,0,0,0,0,0.8249,0.8249,0.8255,0.8254,0.8255,0.8255,0.8256,0.8259,0.8262,0.8258,0.8258,0.8259,0.8265,0.8266,0.8266,0.8271,0.8269,0.8269,0.8269,0.8269,0.8279,0.8279,0,0,0,0,0,0,0.8248,0.8249,0.8255,0.8256,0.8252,0.8256,0.8256,0.8257,0.8262,0.8262,0.8259,0.8259,0.8265,0.8266,0.8267,0.827,0.8269,0.8269,0.8269,0.8279,0.8279,0.8279,0,0,0,0,0,0,0.8248,0.8249,0.8255,0.8252,0.8253,0.8256,0.8257,0.8258,0.8259,0.8262,0.8263,0.826,0.8265,0.8266,0.8269,0.8271,0.8269,0.827,0.8279,0.8279,0.8279,0.8278,0,0,0,0,0,0,0.8248,0.8249,0.825,0.8252,0.8253,0.8257,0.8257,0.8258,0.8259,0.8259,0.8263,0.8264,0.8265,0.8269,0.827,0.8271,0.827,0.8279,0.8279,0.8279,0.8278,0.8278,0.8278,0,0,0,0,0,0.8247,0.8249,0.825,0.825,0.8255,0.8258,0.8258,0.826,0.8259,0.826,0.8262,0.8263,0.827,0.8269,0.827,0.8272,0.8279,0.8279,0.8279,0.8278,0.8278,0.8278,0,0,0,0,0,0,0.8247,0.825,0.825,0.8253,0.8255,0.8258,0.8259,0.826,0.8262,0.8262,0.8265,0.8265,0.8269,0.827,0.8269,0.8275,0.8274,0.8275,0.8273,0.8273,0.8273,0.8273,0.827,0,0,0,0,0,0.8247,0.8249,0.8252,0.8254,0.8255,0.8257,0.8258,0.8259,0.8261,0.8262,0.8265,0.8267,0.827,0.8272,0.8275,0.8278,0.8279,0.8279,0.8279,0.8279,0.828,0.8281,0.8282,0.8279,0.8279,0.8279,0,0,0.8248,0.825,0.8251,0.8254,0.8256,0.8258,0.8258,0.826,0.8261,0.8263,0.8266,0.8268,0.8271,0.8274,0.8276,0.8276,0.828,0.828,0.828,0.828,0.8281,0.8282,0.8282,0.8279,0.8279,0.8279,0,0,0.825,0.8252,0.8254,0.8255,0.8257,0.8259,0.8259,0.8262,0.8263,0.8266,0.8267,0.8269,0.8274,0.8275,0.8277,0.8279,0.828,0.828,0.8281,0.8282,0.8283,0.8283,0.8283,0.8284,0.8281,0.8281,0.8281,0,0.8251,0.8254,0.8255,0.8257,0.8258,0.8259,0.8261,0.8262,0.8266,0.8267,0.8267,0.8272,0.8274,0.8278,0.8278,0.828,0.828,0.828,0.8282,0.8283,0.8283,0.8283,0.8284,0.8281,0.8281,0.8281,0.8281,0,0.8254,0.8256,0.8257,0.826,0.8261,0.8263,0.8265,0.8266,0.8267,0.8268,0.8271,0.8274,0.8277,0.8278,0.8279,0.8282,0.8281,0.8282,0.8282,0.8283,0.8283,0.8284,0.8281,0.8281,0.8281,0.8281,0,0,0.8256,0.8259,0.8259,0.826,0.8263,0.8264,0.8267,0.8269,0.827,0.8272,0.8274,0.8278,0.8278,0.828,0.8281,0.8282,0.8284,0.8283,0.8283,0.8283,0.8287,0.8286,0.8286,0.8284,0.8284,0.8284,0.8286,0,0.8259,0.8262,0.8263,0.8266,0.8267,0.8268,0.827,0.8272,0.8273,0.8275,0.8276,0.8279,0.8279,0.828,0.8281,0.8283,0.8285,0.8283,0.8286,0.8286,0.8285,0.8287,0.8287,0.8288,0.8287,0.8287,0.8287,0,0.8262,0.8263,0.8266,0.8268,0.8269,0.827,0.8272,0.8274,0.8276,0.8277,0.8279,0.828,0.8282,0.8282,0.8285,0.8284,0.8285,0.8286,0.8287,0.8287,0.8287,0.8287,0.8289,0.8289,0.8287,0.8287,0.8287,0,0.8263,0.8266,0.8268,0.8269,0.8271,0.8272,0.8273,0.8275,0.8276,0.8278,0.8279,0.8281,0.8283,0.8285,0.8286,0.8286,0.8289,0.8289,0.829,0.829,0.8291,0.8291,0.8293,0.8292,0.8292,0.8292,0.8292,0,0.8265,0.8267,0.8268,0.8269,0.8271,0.8272,0.8274,0.8276,0.8277,0.8279,0.828,0.8281,0.8284,0.8285,0.8287,0.8289,0.829,0.8291,0.8291,0.8291,0.829,0.8291,0.8291,0.8292,0.8292,0.8292,0.8292,0,0.8267,0.8268,0.827,0.8272,0.8272,0.8273,0.8275,0.8276,0.8278,0.828,0.828,0.8282,0.8284,0.8286,0.8289,0.829,0.8292,0.8293,0.8292,0.8292,0.8293,0.8292,0.8295,0.8295,0.8294,0.8294,0.8294,0,0.8268,0.8269,0.8271,0.8272,0.8273,0.8274,0.8276,0.8277,0.8278,0.828,0.8281,0.8283,0.8285,0.8289,0.829,0.8293,0.8293,0.8294,0.8294,0.8293,0.8293,0.8293,0.8293,0.8294,0.8294,0.8294,0.8294,0,0.827,0.8271,0.8272,0.8274,0.8275,0.8276,0.8277,0.8278,0.828,0.8281,0.8283,0.8284,0.8287,0.8289,0.8292,0.8293,0.8294,0.8294,0.8294,0.8294,0.8293,0.8293,0.8292,0.8294,0.8294,0.8294,0.8294,0.8294,0.8272,0.8273,0.8274,0.8276,0.8277,0.8278,0.8279,0.828,0.8281,0.8283,0.8284,0.8286,0.8288,0.8291,0.8293,0.8294,0.8294,0.8295,0.8295,0.8295,0.8295,0.8293,0.8295,0.8295,0.8295,0.8295,0.8295,0,0.8274,0.8275,0.8276,0.8278,0.8279,0.8279,0.828,0.8281,0.8283,0.8284,0.8286,0.8288,0.829,0.8292,0.8294,0.8295,0.8295,0.8296,0.8296,0.8296,0.8295,0.8294,0.8295,0.8295,0.8295,0.8295,0.8295,0.8295,0.8275,0.8277,0.8277,0.8279,0.828,0.8282,0.8283,0.8284,0.8285,0.8287,0.8289,0.8289,0.8291,0.8293,0.8295,0.8296,0.8296,0.8296,0.8297,0.8296,0.8296,0.8296,0.8295,0.8296,0.8296,0.8298,0.8298,0.8298]},{"header":{"parameterUnit":"m.s-1","parameterCategory":1,"la1":30.2991,"la2":30.254,"lo1":-89.0895,"lo2":-89.0444,"dy":0.0017,"dx":0.0017,"nx":28,"ny":28,"refTime":"2025-08-22T21:00:00:Z","depth":0,"parameterNumber":3,"parameterNumberName":"V-component_of_WINDS"},"data":[0,0,0,0,0,0,0,0,0,0,0,0,0,0,0,0,0,0,0,0,0,0,0,0,0,0,0,0,0,0,0,0,0,0,0,0,0,0,0,0,0,0,0,0,0,0,0,0,0,0,0,0,0,0,0,0,0,0,1.4359,1.4359,0,1.4352,1.4351,1.4351,1.4371,1.4372,1.4372,1.4373,1.4362,1.4361,1.436,0,0,0,0,0,0,0,0,0,0,0,0,0,1.4386,1.4385,1.4359,1.4359,1.4359,1.4352,1.4351,1.4351,1.4371,1.4372,1.4372,1.4373,1.4362,1.4361,1.436,0,0,0,0,0,0,0,0,0,0,0,0,0,1.4376,1.4385,1.4359,1.4368,1.4369,1.4352,1.4351,1.4351,1.4371,1.4372,1.4373,1.4373,1.4362,1.4361,1.436,1.4333,0,0,1.4356,1.4355,0,0,0,0,0,0,0,0,1.4376,1.4375,1.4367,1.4367,1.4368,1.4363,1.4357,1.4345,1.437,1.437,1.4373,1.4374,1.4361,1.436,1.4357,1.4333,1.4332,1.4356,1.4355,1.4354,1.4354,0,0,0,0,0,0,0,1.4377,1.4375,1.4356,1.4367,1.4367,1.4371,1.437,1.4355,1.436,1.437,1.4371,1.437,1.4362,1.4358,1.4357,1.4332,1.4356,1.4355,1.4354,1.4353,1.4281,1.428,0,0,0,0,0,0,1.4377,1.4376,1.4356,1.4356,1.4375,1.4369,1.4369,1.4364,1.4361,1.4361,1.437,1.4371,1.436,1.4358,1.4356,1.4322,1.4354,1.4353,1.4352,1.4283,1.4281,1.428,0,0,0,0,0,0,1.4377,1.4375,1.4357,1.4366,1.4364,1.4368,1.4362,1.4363,1.4359,1.436,1.4361,1.4365,1.436,1.4358,1.4338,1.4322,1.4353,1.4351,1.4284,1.4282,1.4281,1.4254,0,0,0,0,0,0,1.4378,1.4375,1.4366,1.4366,1.4363,1.434,1.4361,1.4362,1.4357,1.4359,1.4356,1.4356,1.4361,1.434,1.4337,1.4321,1.435,1.4285,1.4283,1.4281,1.4257,1.4252,1.4248,0,0,0,0,0,1.4379,1.4359,1.4366,1.4363,1.4353,1.4339,1.4338,1.4344,1.4356,1.4346,1.4346,1.4356,1.4324,1.4338,1.4334,1.4317,1.4286,1.4284,1.4281,1.4259,1.4253,1.4248,0,0,0,0,0,0,1.4358,1.436,1.4367,1.4347,1.4343,1.4343,1.433,1.4339,1.433,1.4333,1.434,1.4339,1.4317,1.4316,1.433,1.4289,1.4307,1.4304,1.4291,1.4286,1.4281,1.4281,1.4349,0,0,0,0,0,1.4351,1.4341,1.4343,1.4325,1.4322,1.4327,1.4321,1.4326,1.4322,1.432,1.4319,1.4313,1.4302,1.4294,1.4284,1.4257,1.4254,1.4243,1.4239,1.4236,1.4232,1.4214,1.4208,1.4272,1.4272,1.4272,0,0,1.4336,1.4336,1.4329,1.432,1.4318,1.4305,1.4325,1.4312,1.4302,1.4318,1.4298,1.4297,1.4291,1.4267,1.4256,1.4265,1.4214,1.4232,1.4229,1.4228,1.4211,1.4205,1.4199,1.427,1.427,1.427,0,0,1.4302,1.4303,1.4286,1.4283,1.4279,1.4281,1.4277,1.4276,1.4275,1.4256,1.4267,1.4254,1.4235,1.4229,1.4224,1.4185,1.4193,1.4182,1.4158,1.4141,1.4136,1.4131,1.4114,1.4108,1.4178,1.4178,1.4178,0,1.4284,1.4268,1.4276,1.4262,1.4256,1.427,1.4252,1.4248,1.424,1.4235,1.4246,1.4219,1.4217,1.4189,1.418,1.4176,1.4169,1.4181,1.4136,1.4132,1.4127,1.4111,1.4105,1.4177,1.4177,1.4177,1.4177,0,1.4244,1.4232,1.4219,1.4211,1.4204,1.4188,1.4192,1.4184,1.4189,1.4189,1.4168,1.4165,1.4152,1.4146,1.4152,1.4119,1.4124,1.4135,1.4153,1.412,1.4104,1.4098,1.4175,1.4175,1.4176,1.4176,0,0,1.4197,1.4193,1.4188,1.4183,1.4179,1.4168,1.4151,1.414,1.4131,1.4125,1.4109,1.4091,1.41,1.4094,1.4098,1.4083,1.4048,1.4096,1.4095,1.4084,1.4007,1.3997,1.399,1.4054,1.4053,1.4052,1.4007,0,1.4161,1.4133,1.414,1.4111,1.4098,1.411,1.4095,1.4089,1.4089,1.4076,1.4075,1.4061,1.4077,1.4072,1.4058,1.4056,1.4032,1.4059,1.4036,1.4035,1.4035,1.3983,1.3973,1.3931,1.4001,1.4,1.4,0,1.4117,1.4108,1.4078,1.4073,1.4068,1.4055,1.4043,1.4032,1.4024,1.4025,1.4016,1.4023,1.4003,1.4022,1.3993,1.401,1.4001,1.3998,1.3997,1.3993,1.4014,1.3975,1.3918,1.391,1.3991,1.3992,1.3992,0,1.4081,1.4063,1.4042,1.4038,1.4032,1.4022,1.4019,1.4012,1.4004,1.3993,1.3987,1.3974,1.3966,1.3954,1.3956,1.397,1.3925,1.3945,1.3922,1.3922,1.3911,1.3911,1.3848,1.3909,1.3909,1.3909,1.3909,0,1.404,1.4021,1.4026,1.4013,1.399,1.3996,1.3973,1.3971,1.3965,1.395,1.396,1.3944,1.3949,1.3933,1.3934,1.3907,1.3905,1.3902,1.3902,1.39,1.39,1.3892,1.3894,1.3907,1.3908,1.3908,1.3908,0,1.3997,1.4,1.3977,1.3973,1.3972,1.3955,1.395,1.3936,1.3937,1.3917,1.3912,1.3912,1.3893,1.3894,1.3874,1.3874,1.384,1.3845,1.3843,1.3843,1.3819,1.382,1.3747,1.3736,1.3807,1.3806,1.3805,0,1.3969,1.3954,1.3948,1.3939,1.3935,1.3921,1.3912,1.3917,1.3907,1.3895,1.3882,1.3865,1.3851,1.3821,1.3817,1.38,1.3803,1.3778,1.38,1.3797,1.3798,1.3798,1.3795,1.3773,1.3773,1.3772,1.3771,0,1.3918,1.392,1.3908,1.3895,1.3884,1.3874,1.3865,1.3857,1.386,1.3848,1.383,1.3819,1.3797,1.3779,1.3762,1.3756,1.3763,1.3765,1.3758,1.3754,1.3752,1.3749,1.3828,1.3766,1.3767,1.3767,1.3767,1.3767,1.388,1.3866,1.3859,1.3844,1.3838,1.3828,1.3814,1.3812,1.3797,1.378,1.3784,1.3762,1.3752,1.373,1.3723,1.3704,1.3712,1.3703,1.3701,1.3698,1.3693,1.3757,1.3701,1.3701,1.3702,1.3702,1.3702,0,1.3827,1.3823,1.3809,1.3796,1.3783,1.3792,1.3782,1.377,1.3751,1.3742,1.3728,1.3704,1.3686,1.368,1.3661,1.3647,1.3649,1.3641,1.3641,1.3639,1.3689,1.3695,1.3639,1.3639,1.3639,1.3639,1.3639,1.3639,1.3798,1.3774,1.3774,1.3746,1.3742,1.3721,1.3714,1.3704,1.3696,1.367,1.3655,1.3652,1.3642,1.3622,1.3604,1.3603,1.3594,1.3584,1.3583,1.3629,1.3636,1.3642,1.3647,1.3583,1.3583,1.3534,1.3534,1.3533]}]]